| time (UTC) | temp F | wind direction | speed knots | gust knots | rain 1hr in | rain 24hr in | rain mn in | humidity % | barometer mb |
| 20260509023903 | 87 | 8 | 0.9 | 1.7 | 0.00 | 0.00 | 0.00 | 14 | 1010.0 |
| 20260509022902 | 88 | 339 | 0.0 | 2.6 | 0.00 | 0.00 | 0.00 | 13 | 1009.9 |
| 20260509022403 | 88 | 36 | 0.0 | 2.6 | 0.00 | 0.00 | 0.00 | 13 | 1009.8 |
| 20260509021902 | 89 | 315 | 0.9 | 2.6 | 0.00 | 0.00 | 0.00 | 13 | 1009.8 |
| 20260509021402 | 89 | 256 | 0.9 | 2.6 | 0.00 | 0.00 | 0.00 | 12 | 1009.7 |
| 20260509020903 | 89 | 133 | 0.9 | 2.6 | 0.00 | 0.00 | 0.00 | 12 | 1009.7 |
| 20260509020402 | 90 | 241 | 0.9 | 2.6 | 0.00 | 0.00 | 0.00 | 12 | 1009.6 |
| 20260509015903 | 90 | 293 | 0.9 | 5.2 | 0.00 | 0.00 | 0.00 | 12 | 1009.7 |
| 20260509015403 | 90 | 207 | 0.9 | 6.1 | 0.00 | 0.00 | 0.00 | 12 | 1009.6 |
| 20260509014903 | 91 | 280 | 1.7 | 6.1 | 0.00 | 0.00 | 0.00 | 12 | 1009.6 |
| 20260509013903 | 91 | 234 | 2.6 | 7.0 | 0.00 | 0.00 | 0.00 | 11 | 1009.5 |
| 20260509013403 | 91 | 219 | 1.7 | 7.0 | 0.00 | 0.00 | 0.00 | 11 | 1009.4 |
| 20260509012402 | 92 | 214 | 1.7 | 7.8 | 0.00 | 0.00 | 0.00 | 11 | 1009.4 |
| 20260509011902 | 92 | 251 | 2.6 | 7.0 | 0.00 | 0.00 | 0.00 | 11 | 1009.4 |
| 20260509011402 | 92 | 246 | 1.7 | 7.0 | 0.00 | 0.00 | 0.00 | 11 | 1009.5 |
| 20260509010902 | 92 | 214 | 2.6 | 7.0 | 0.00 | 0.00 | 0.00 | 11 | 1009.4 |
| 20260509005902 | 93 | 220 | 2.6 | 6.1 | 0.00 | 0.00 | 0.00 | 11 | 1009.4 |
| 20260509005403 | 93 | 70 | 1.7 | 6.1 | 0.00 | 0.00 | 0.00 | 11 | 1009.4 |
| 20260509004902 | 93 | 218 | 2.6 | 7.0 | 0.00 | 0.00 | 0.00 | 11 | 1009.5 |
| 20260509004403 | 93 | 241 | 2.6 | 7.0 | 0.00 | 0.00 | 0.00 | 11 | 1009.4 |
| 20260509003903 | 94 | 183 | 2.6 | 7.0 | 0.00 | 0.00 | 0.00 | 11 | 1009.5 |
| 20260509003403 | 94 | 299 | 1.7 | 4.3 | 0.00 | 0.00 | 0.00 | 11 | 1009.5 |
| 20260509002903 | 94 | 262 | 0.9 | 7.0 | 0.00 | 0.00 | 0.00 | 10 | 1009.5 |
| 20260509002402 | 94 | 11 | 2.6 | 7.8 | 0.00 | 0.00 | 0.00 | 10 | 1009.5 |
| 20260509001903 | 94 | 205 | 2.6 | 11.3 | 0.00 | 0.00 | 0.00 | 10 | 1009.6 |
| 20260509001402 | 94 | 204 | 2.6 | 11.3 | 0.00 | 0.00 | 0.00 | 10 | 1009.6 |
| 20260509000403 | 95 | 262 | 1.7 | 6.1 | 0.00 | 0.00 | 0.00 | 10 | 1009.6 |
| 20260508235903 | 95 | 230 | 2.6 | 7.0 | 0.00 | 0.00 | 0.00 | 10 | 1009.5 |
| 20260508235402 | 94 | 317 | 2.6 | 10.4 | 0.00 | 0.00 | 0.00 | 10 | 1009.5 |
| 20260508234902 | 95 | 312 | 4.3 | 10.4 | 0.00 | 0.00 | 0.00 | 10 | 1009.6 |
| 20260508234403 | 95 | 313 | 2.6 | 7.8 | 0.00 | 0.00 | 0.00 | 10 | 1009.6 |
| 20260508233902 | 95 | 253 | 1.7 | 7.8 | 0.00 | 0.00 | 0.00 | 10 | 1009.6 |
| 20260508233403 | 95 | 235 | 2.6 | 10.4 | 0.00 | 0.00 | 0.00 | 9 | 1009.7 |
| 20260508232403 | 95 | 189 | 3.5 | 12.2 | 0.00 | 0.00 | 0.00 | 10 | 1009.8 |
| 20260508231903 | 96 | 236 | 1.7 | 7.8 | 0.00 | 0.00 | 0.00 | 10 | 1009.7 |
| 20260508231402 | 96 | 238 | 1.7 | 6.1 | 0.00 | 0.00 | 0.00 | 10 | 1009.9 |
| 20260508230403 | 96 | 30 | 2.6 | 6.1 | 0.00 | 0.00 | 0.00 | 10 | 1009.9 |
| 20260508225903 | 96 | 235 | 2.6 | 6.1 | 0.00 | 0.00 | 0.00 | 10 | 1009.9 |
| 20260508225403 | 96 | 214 | 2.6 | 10.4 | 0.00 | 0.00 | 0.00 | 10 | 1009.9 |
| 20260508224902 | 96 | 215 | 2.6 | 10.4 | 0.00 | 0.00 | 0.00 | 10 | 1010.0 |
| 20260508223903 | 97 | 238 | 3.5 | 8.7 | 0.00 | 0.00 | 0.00 | 10 | 1010.0 |
| 20260508223403 | 97 | 205 | 3.5 | 8.7 | 0.00 | 0.00 | 0.00 | 10 | 1010.2 |
| 20260508222903 | 96 | 302 | 2.6 | 6.1 | 0.00 | 0.00 | 0.00 | 9 | 1010.3 |
| 20260508222403 | 96 | 213 | 2.6 | 11.3 | 0.00 | 0.00 | 0.00 | 10 | 1010.3 |
| 20260508221403 | 96 | 254 | 1.7 | 8.7 | 0.00 | 0.00 | 0.00 | 10 | 1010.5 |
| 20260508220903 | 96 | 227 | 2.6 | 11.3 | 0.00 | 0.00 | 0.00 | 10 | 1010.5 |
| 20260508220403 | 95 | 211 | 3.5 | 11.3 | 0.00 | 0.00 | 0.00 | 11 | 1010.6 |
| 20260508215903 | 96 | 224 | 1.7 | 11.3 | 0.00 | 0.00 | 0.00 | 11 | 1010.6 |
| 20260508215403 | 97 | 280 | 2.6 | 11.3 | 0.00 | 0.00 | 0.00 | 11 | 1010.8 |
| 20260508214903 | 96 | 215 | 2.6 | 7.8 | 0.00 | 0.00 | 0.00 | 11 | 1010.8 |
| 20260508214404 | 96 | 234 | 2.6 | 7.8 | 0.00 | 0.00 | 0.00 | 12 | 1011.0 |
| 20260508213903 | 96 | 278 | 3.5 | 7.8 | 0.00 | 0.00 | 0.00 | 12 | 1011.1 |
| 20260508213403 | 96 | 358 | 2.6 | 7.8 | 0.00 | 0.00 | 0.00 | 12 | 1011.1 |
| 20260508212903 | 96 | 228 | 1.7 | 11.3 | 0.00 | 0.00 | 0.00 | 12 | 1011.2 |
| 20260508212404 | 96 | 169 | 3.5 | 11.3 | 0.00 | 0.00 | 0.00 | 11 | 1011.3 |
| 20260508211902 | 96 | 213 | 2.6 | 8.7 | 0.00 | 0.00 | 0.00 | 11 | 1011.4 |
| 20260508210903 | 95 | 230 | 2.6 | 8.7 | 0.00 | 0.00 | 0.00 | 11 | 1011.4 |
| 20260508210403 | 96 | 214 | 2.6 | 8.7 | 0.00 | 0.00 | 0.00 | 12 | 1011.5 |
| 20260508205903 | 95 | 328 | 1.7 | 7.8 | 0.00 | 0.00 | 0.00 | 13 | 1011.5 |
| 20260508205402 | 95 | 216 | 2.6 | 8.7 | 0.00 | 0.00 | 0.00 | 12 | 1011.7 |
| 20260508204902 | 95 | 166 | 1.7 | 8.7 | 0.00 | 0.00 | 0.00 | 12 | 1011.7 |
| 20260508204402 | 96 | 337 | 2.6 | 8.7 | 0.00 | 0.00 | 0.00 | 12 | 1011.8 |
| 20260508203903 | 96 | 220 | 1.7 | 7.0 | 0.00 | 0.00 | 0.00 | 12 | 1011.7 |
| 20260508202403 | 96 | 265 | 1.7 | 10.4 | 0.00 | 0.00 | 0.00 | 12 | 1012.1 |
| 20260508201902 | 95 | 291 | 4.3 | 10.4 | 0.00 | 0.00 | 0.00 | 14 | 1012.0 |
| 20260508201402 | 95 | 229 | 1.7 | 7.0 | 0.00 | 0.00 | 0.00 | 13 | 1012.1 |
| 20260508200902 | 95 | 196 | 1.7 | 10.4 | 0.00 | 0.00 | 0.00 | 13 | 1012.1 |
| 20260508200403 | 94 | 232 | 2.6 | 10.4 | 0.00 | 0.00 | 0.00 | 13 | 1012.3 |
| 20260508195903 | 94 | 159 | 1.7 | 7.8 | 0.00 | 0.00 | 0.00 | 13 | 1012.3 |
| 20260508194903 | 94 | 213 | 3.5 | 10.4 | 0.00 | 0.00 | 0.00 | 14 | 1012.6 |
| 20260508194403 | 93 | 236 | 1.7 | 8.7 | 0.00 | 0.00 | 0.00 | 14 | 1012.6 |
| 20260508193903 | 93 | 329 | 1.7 | 8.7 | 0.00 | 0.00 | 0.00 | 14 | 1012.7 |
| 20260508193403 | 93 | 177 | 1.7 | 7.0 | 0.00 | 0.00 | 0.00 | 14 | 1012.7 |
| 20260508192902 | 93 | 219 | 2.6 | 8.7 | 0.00 | 0.00 | 0.00 | 14 | 1012.7 |
| 20260508192402 | 92 | 301 | 2.6 | 8.7 | 0.00 | 0.00 | 0.00 | 14 | 1012.8 |
| 20260508191903 | 92 | 228 | 1.7 | 8.7 | 0.00 | 0.00 | 0.00 | 14 | 1012.9 |
| 20260508191403 | 93 | 345 | 2.6 | 7.8 | 0.00 | 0.00 | 0.00 | 15 | 1012.9 |
| 20260508190903 | 93 | 161 | 1.7 | 5.2 | 0.00 | 0.00 | 0.00 | 14 | 1013.1 |
| 20260508190403 | 92 | 221 | 1.7 | 6.1 | 0.00 | 0.00 | 0.00 | 14 | 1013.2 |
| 20260508185902 | 93 | 209 | 2.6 | 7.8 | 0.00 | 0.00 | 0.00 | 14 | 1013.1 |
| 20260508185403 | 92 | 320 | 1.7 | 8.7 | 0.00 | 0.00 | 0.00 | 15 | 1013.1 |
| 20260508184903 | 91 | 303 | 2.6 | 8.7 | 0.00 | 0.00 | 0.00 | 15 | 1013.2 |
| 20260508184403 | 91 | 223 | 2.6 | 8.7 | 0.00 | 0.00 | 0.00 | 14 | 1013.2 |
| 20260508183402 | 90 | 254 | 0.9 | 7.8 | 0.00 | 0.00 | 0.00 | 16 | 1013.4 |
| 20260508182903 | 90 | 168 | 2.6 | 6.1 | 0.00 | 0.00 | 0.00 | 15 | 1013.5 |
| 20260508182402 | 89 | 291 | 1.7 | 7.0 | 0.00 | 0.00 | 0.00 | 17 | 1013.5 |
| 20260508181903 | 88 | 45 | 1.7 | 7.0 | 0.00 | 0.00 | 0.00 | 17 | 1013.6 |
| 20260508181402 | 88 | 225 | 1.7 | 6.1 | 0.00 | 0.00 | 0.00 | 16 | 1013.6 |
| 20260508180902 | 88 | 239 | 1.7 | 4.3 | 0.00 | 0.00 | 0.00 | 17 | 1013.7 |
| 20260508180403 | 88 | 215 | 1.7 | 2.6 | 0.00 | 0.00 | 0.00 | 16 | 1013.8 |
| 20260508175904 | 88 | 184 | 1.7 | 2.6 | 0.00 | 0.00 | 0.00 | 17 | 1013.9 |
| 20260508175403 | 87 | 185 | 0.9 | 2.6 | 0.00 | 0.00 | 0.00 | 17 | 1014.0 |
| 20260508174903 | 85 | 77 | 1.7 | 2.6 | 0.00 | 0.00 | 0.00 | 18 | 1014.0 |
| 20260508174403 | 86 | 119 | 1.7 | 2.6 | 0.00 | 0.00 | 0.00 | 17 | 1014.0 |
| 20260508172902 | 84 | 55 | 1.7 | 4.3 | 0.00 | 0.00 | 0.00 | 19 | 1014.1 |
| 20260508172403 | 84 | 199 | 1.7 | 4.3 | 0.00 | 0.00 | 0.00 | 19 | 1014.2 |
| 20260508171902 | 84 | 234 | 0.9 | 2.6 | 0.00 | 0.00 | 0.00 | 19 | 1014.3 |
| 20260508171403 | 83 | 76 | 0.9 | 2.6 | 0.00 | 0.00 | 0.00 | 19 | 1014.3 |
| 20260508170903 | 83 | 163 | 0.9 | 2.6 | 0.00 | 0.00 | 0.00 | 20 | 1014.4 |
| 20260508165903 | 84 | 237 | 0.9 | 2.6 | 0.00 | 0.00 | 0.00 | 19 | 1014.5 |